Year,Month,Day,Hour,Minute,Value (Times are PST for temperature in C)
2011,07,09,00,00,11.00
2011,07,09,00,01,11.00
2011,07,09,00,02,11.00
2011,07,09,00,03,11.00
2011,07,09,00,04,11.00
2011,07,09,00,05,11.00
2011,07,09,00,06,11.00
2011,07,09,00,07,11.00
2011,07,09,00,08,11.00
2011,07,09,00,09,11.00
2011,07,09,00,10,11.00
2011,07,09,00,11,11.00
2011,07,09,00,12,11.00
2011,07,09,00,13,11.00
2011,07,09,00,14,11.00
2011,07,09,00,15,11.00
2011,07,09,00,16,11.00
2011,07,09,00,17,11.00
2011,07,09,00,18,11.00
2011,07,09,00,19,11.00
2011,07,09,00,20,11.00
2011,07,09,00,21,10.90
2011,07,09,00,22,10.90
2011,07,09,00,23,10.90
2011,07,09,00,24,10.90
2011,07,09,00,25,10.90
2011,07,09,00,26,10.90
2011,07,09,00,27,10.90
2011,07,09,00,28,10.90
2011,07,09,00,29,10.90
2011,07,09,00,30,10.90
2011,07,09,00,31,10.80
2011,07,09,00,32,10.80
2011,07,09,00,33,10.80
2011,07,09,00,34,10.80
2011,07,09,00,35,10.80
2011,07,09,00,36,10.80
2011,07,09,00,37,10.80
2011,07,09,00,38,10.80
2011,07,09,00,39,10.80
2011,07,09,00,40,10.80
2011,07,09,00,41,10.80
2011,07,09,00,42,10.80
2011,07,09,00,43,10.80
2011,07,09,00,44,10.80
2011,07,09,00,45,10.80
2011,07,09,00,46,10.80
2011,07,09,00,47,10.80
2011,07,09,00,48,10.80
2011,07,09,00,49,10.80
2011,07,09,00,50,10.80
2011,07,09,00,51,10.80
2011,07,09,00,52,10.80
2011,07,09,00,53,10.80
2011,07,09,00,54,10.80
2011,07,09,00,55,10.80
2011,07,09,00,56,10.80
2011,07,09,00,57,10.80
2011,07,09,00,58,10.80
2011,07,09,00,59,10.80
2011,07,09,01,00,10.70
2011,07,09,01,01,10.70
2011,07,09,01,02,10.70
2011,07,09,01,03,10.70
2011,07,09,01,04,10.70
2011,07,09,01,05,10.70
2011,07,09,01,06,10.70
2011,07,09,01,07,10.70
2011,07,09,01,08,10.70
2011,07,09,01,09,10.70
2011,07,09,01,10,10.70
2011,07,09,01,11,10.70
2011,07,09,01,12,10.70
2011,07,09,01,13,10.70
2011,07,09,01,14,10.70
2011,07,09,01,15,10.70
2011,07,09,01,16,10.60
2011,07,09,01,17,10.60
2011,07,09,01,18,10.60
2011,07,09,01,19,10.60
2011,07,09,01,20,10.60
2011,07,09,01,21,10.60
2011,07,09,01,22,10.60
2011,07,09,01,23,10.60
2011,07,09,01,24,10.60
2011,07,09,01,25,10.60
2011,07,09,01,26,10.60
2011,07,09,01,27,10.60
2011,07,09,01,28,10.50
2011,07,09,01,29,10.50
2011,07,09,01,30,10.50
2011,07,09,01,31,10.50
2011,07,09,01,32,10.50
2011,07,09,01,33,10.50
2011,07,09,01,34,10.50
2011,07,09,01,35,10.50
2011,07,09,01,36,10.50
2011,07,09,01,37,10.40
2011,07,09,01,38,10.50
2011,07,09,01,39,10.40
2011,07,09,01,40,10.40
2011,07,09,01,41,10.40
2011,07,09,01,42,10.40
2011,07,09,01,43,10.40
2011,07,09,01,44,10.40
2011,07,09,01,45,10.40
2011,07,09,01,46,10.40
2011,07,09,01,47,10.40
2011,07,09,01,48,10.40
2011,07,09,01,49,10.40
2011,07,09,01,50,10.40
2011,07,09,01,51,10.40
2011,07,09,01,52,10.40
2011,07,09,01,53,10.30
2011,07,09,01,54,10.30
2011,07,09,01,55,10.30
2011,07,09,01,56,10.30
2011,07,09,01,57,10.30
2011,07,09,01,58,10.30
2011,07,09,01,59,10.30
2011,07,09,02,00,10.30
2011,07,09,02,01,10.30
2011,07,09,02,02,10.30
2011,07,09,02,03,10.30
2011,07,09,02,04,10.30
2011,07,09,02,05,10.30
2011,07,09,02,06,10.30
2011,07,09,02,07,10.30
2011,07,09,02,08,10.30
2011,07,09,02,09,10.20
2011,07,09,02,10,10.20
2011,07,09,02,11,10.20
2011,07,09,02,12,10.20
2011,07,09,02,13,10.20
2011,07,09,02,14,10.20
2011,07,09,02,15,10.20
2011,07,09,02,16,10.20
2011,07,09,02,17,10.20
2011,07,09,02,18,10.20
2011,07,09,02,19,10.20
2011,07,09,02,20,10.10
2011,07,09,02,21,10.10
2011,07,09,02,22,10.10
2011,07,09,02,23,10.10
2011,07,09,02,24,10.10
2011,07,09,02,25,10.10
2011,07,09,02,26,10.10
2011,07,09,02,27,10.00
2011,07,09,02,28,10.00
2011,07,09,02,29,10.00
2011,07,09,02,30,10.00
2011,07,09,02,31,10.00
2011,07,09,02,32,10.10
2011,07,09,02,33,10.10
2011,07,09,02,34,10.00
2011,07,09,02,35,10.00
2011,07,09,02,36,10.00
2011,07,09,02,37,10.00
2011,07,09,02,38,10.00
2011,07,09,02,39,10.00
2011,07,09,02,40,10.00
2011,07,09,02,41,10.00
2011,07,09,02,42,10.00
2011,07,09,02,43,9.90
2011,07,09,02,44,9.90
2011,07,09,02,45,9.90
2011,07,09,02,46,9.90
2011,07,09,02,47,9.90
2011,07,09,02,48,9.90
2011,07,09,02,49,9.90
2011,07,09,02,50,9.90
2011,07,09,02,51,9.80
2011,07,09,02,52,9.80
2011,07,09,02,53,9.90
2011,07,09,02,54,9.90
2011,07,09,02,55,9.90
2011,07,09,02,56,9.90
2011,07,09,02,57,9.80
2011,07,09,02,58,9.80
2011,07,09,02,59,9.80
2011,07,09,03,00,9.80
2011,07,09,03,01,9.80
2011,07,09,03,02,9.80
2011,07,09,03,03,9.80
2011,07,09,03,04,9.80
2011,07,09,03,05,9.80
2011,07,09,03,06,9.80
2011,07,09,03,07,9.80
2011,07,09,03,08,9.80
2011,07,09,03,09,9.80
2011,07,09,03,10,9.80
2011,07,09,03,11,9.80
2011,07,09,03,12,9.80
2011,07,09,03,13,9.80
2011,07,09,03,14,9.80
2011,07,09,03,15,9.80
2011,07,09,03,16,9.80
2011,07,09,03,17,9.80
2011,07,09,03,18,9.80
2011,07,09,03,19,9.80
2011,07,09,03,20,9.80
2011,07,09,03,21,9.80
2011,07,09,03,22,9.80
2011,07,09,03,23,9.80
2011,07,09,03,24,9.80
2011,07,09,03,25,9.80
2011,07,09,03,26,9.80
2011,07,09,03,27,9.80
2011,07,09,03,28,9.80
2011,07,09,03,29,9.80
2011,07,09,03,30,9.70
2011,07,09,03,31,9.70
2011,07,09,03,32,9.70
2011,07,09,03,33,9.70
2011,07,09,03,34,9.70
2011,07,09,03,35,9.70
2011,07,09,03,36,9.70
2011,07,09,03,37,9.70
2011,07,09,03,38,9.60
2011,07,09,03,39,9.60
2011,07,09,03,40,9.60
2011,07,09,03,41,9.60
2011,07,09,03,42,9.60
2011,07,09,03,43,9.60
2011,07,09,03,44,9.60
2011,07,09,03,45,9.60
2011,07,09,03,46,9.60
2011,07,09,03,47,9.60
2011,07,09,03,48,9.60
2011,07,09,03,49,9.60
2011,07,09,03,50,9.60
2011,07,09,03,51,9.50
2011,07,09,03,52,9.50
2011,07,09,03,53,9.40
2011,07,09,03,54,9.40
2011,07,09,03,55,9.40
2011,07,09,03,56,9.40
2011,07,09,03,57,9.30
2011,07,09,03,58,9.30
2011,07,09,03,59,9.30
2011,07,09,04,00,9.30
2011,07,09,04,01,9.30
2011,07,09,04,02,9.30
2011,07,09,04,03,9.30
2011,07,09,04,04,9.30
2011,07,09,04,05,9.30
2011,07,09,04,06,9.40
2011,07,09,04,07,9.40
2011,07,09,04,08,9.40
2011,07,09,04,09,9.40
2011,07,09,04,10,9.40
2011,07,09,04,11,9.30
2011,07,09,04,12,9.30
2011,07,09,04,13,9.30
2011,07,09,04,14,9.30
2011,07,09,04,15,9.30
2011,07,09,04,16,9.30
2011,07,09,04,17,9.30
2011,07,09,04,18,9.30
2011,07,09,04,19,9.30
2011,07,09,04,20,9.30
2011,07,09,04,21,9.30
2011,07,09,04,22,9.30
2011,07,09,04,23,9.30
2011,07,09,04,24,9.30
2011,07,09,04,25,9.30
2011,07,09,04,26,9.30
2011,07,09,04,27,9.20
2011,07,09,04,28,9.20
2011,07,09,04,29,9.20
2011,07,09,04,30,9.20
2011,07,09,04,31,9.20
2011,07,09,04,32,9.20
2011,07,09,04,33,9.20
2011,07,09,04,34,9.20
2011,07,09,04,35,9.20
2011,07,09,04,36,9.20
2011,07,09,04,37,9.20
2011,07,09,04,38,9.20
2011,07,09,04,39,9.20
2011,07,09,04,40,9.20
2011,07,09,04,41,9.20
2011,07,09,04,42,9.20
2011,07,09,04,43,9.20
2011,07,09,04,44,9.20
2011,07,09,04,45,9.20
2011,07,09,04,46,9.20
2011,07,09,04,47,9.20
2011,07,09,04,48,9.20
2011,07,09,04,49,9.20
2011,07,09,04,50,9.20
2011,07,09,04,51,9.20
2011,07,09,04,52,9.20
2011,07,09,04,53,9.20
2011,07,09,04,54,9.10
2011,07,09,04,55,9.10
2011,07,09,04,56,9.10
2011,07,09,04,57,9.00
2011,07,09,04,58,9.00
2011,07,09,04,59,9.00
2011,07,09,05,00,9.00
2011,07,09,05,01,8.90
2011,07,09,05,02,8.90
2011,07,09,05,03,8.90
2011,07,09,05,04,8.90
2011,07,09,05,05,8.90
2011,07,09,05,06,8.80
2011,07,09,05,07,8.80
2011,07,09,05,08,8.80
2011,07,09,05,09,8.80
2011,07,09,05,10,8.80
2011,07,09,05,11,8.80
2011,07,09,05,12,8.80
2011,07,09,05,13,8.80
2011,07,09,05,14,8.80
2011,07,09,05,15,8.80
2011,07,09,05,16,8.80
2011,07,09,05,17,8.80
2011,07,09,05,18,8.80
2011,07,09,05,19,8.80
2011,07,09,05,20,8.70
2011,07,09,05,21,8.70
2011,07,09,05,22,8.70
2011,07,09,05,23,8.70
2011,07,09,05,24,8.70
2011,07,09,05,25,8.70
2011,07,09,05,26,8.70
2011,07,09,05,27,8.70
2011,07,09,05,28,8.70
2011,07,09,05,29,8.70
2011,07,09,05,30,8.70
2011,07,09,05,31,8.70
2011,07,09,05,32,8.70
2011,07,09,05,33,8.70
2011,07,09,05,34,8.80
2011,07,09,05,35,8.80
2011,07,09,05,36,8.80
2011,07,09,05,37,8.80
2011,07,09,05,38,8.80
2011,07,09,05,39,8.80
2011,07,09,05,40,8.80
2011,07,09,05,41,8.80
2011,07,09,05,42,8.80
2011,07,09,05,43,8.80
2011,07,09,05,44,8.80
2011,07,09,05,45,8.80
2011,07,09,05,46,8.90
2011,07,09,05,47,8.90
2011,07,09,05,48,8.90
2011,07,09,05,49,8.90
2011,07,09,05,50,8.90
2011,07,09,05,51,8.90
2011,07,09,05,52,8.90
2011,07,09,05,53,9.00
2011,07,09,05,54,9.00
2011,07,09,05,55,9.10
2011,07,09,05,56,9.10
2011,07,09,05,57,9.10
2011,07,09,05,58,9.10
2011,07,09,05,59,9.10
2011,07,09,06,00,9.10
2011,07,09,06,01,9.10
2011,07,09,06,02,9.10
2011,07,09,06,03,9.20
2011,07,09,06,04,9.20
2011,07,09,06,05,9.20
2011,07,09,06,06,9.20
2011,07,09,06,07,9.30
2011,07,09,06,08,9.30
2011,07,09,06,09,9.30
2011,07,09,06,10,9.40
2011,07,09,06,11,9.40
2011,07,09,06,12,9.40
2011,07,09,06,13,9.50
2011,07,09,06,14,9.60
2011,07,09,06,15,9.60
2011,07,09,06,16,9.70
2011,07,09,06,17,9.70
2011,07,09,06,18,9.80
2011,07,09,06,19,9.80
2011,07,09,06,20,9.80
2011,07,09,06,21,9.90
2011,07,09,06,22,9.90
2011,07,09,06,23,9.90
2011,07,09,06,24,9.90
2011,07,09,06,25,9.90
2011,07,09,06,26,9.90
2011,07,09,06,27,9.90
2011,07,09,06,28,9.90
2011,07,09,06,29,9.90
2011,07,09,06,30,10.00
2011,07,09,06,31,10.00
2011,07,09,06,32,10.00
2011,07,09,06,33,10.00
2011,07,09,06,34,10.00
2011,07,09,06,35,10.10
2011,07,09,06,36,10.10
2011,07,09,06,37,10.10
2011,07,09,06,38,10.10
2011,07,09,06,39,10.10
2011,07,09,06,40,10.10
2011,07,09,06,41,10.10
2011,07,09,06,42,10.10
2011,07,09,06,43,10.10
2011,07,09,06,44,10.10
2011,07,09,06,45,10.10
2011,07,09,06,46,10.10
2011,07,09,06,47,10.20
2011,07,09,06,48,10.20
2011,07,09,06,49,10.20
2011,07,09,06,50,10.30
2011,07,09,06,51,10.30
2011,07,09,06,52,10.30
2011,07,09,06,53,10.30
2011,07,09,06,54,10.40
2011,07,09,06,55,10.40
2011,07,09,06,56,10.50
2011,07,09,06,57,10.50
2011,07,09,06,58,10.50
2011,07,09,06,59,10.50
2011,07,09,07,00,10.50
2011,07,09,07,01,10.50
2011,07,09,07,02,10.50
2011,07,09,07,03,10.60
2011,07,09,07,04,10.60
2011,07,09,07,05,10.60
2011,07,09,07,06,10.60
2011,07,09,07,07,10.60
2011,07,09,07,08,10.60
2011,07,09,07,09,10.60
2011,07,09,07,10,10.60
2011,07,09,07,11,10.60
2011,07,09,07,12,10.60
2011,07,09,07,13,10.60
2011,07,09,07,14,10.70
2011,07,09,07,15,10.60
2011,07,09,07,16,10.70
2011,07,09,07,17,10.70
2011,07,09,07,18,10.70
2011,07,09,07,19,10.70
2011,07,09,07,20,10.70
2011,07,09,07,21,10.70
2011,07,09,07,22,10.80
2011,07,09,07,23,10.90
2011,07,09,07,24,11.00
2011,07,09,07,25,11.10
2011,07,09,07,26,11.20
2011,07,09,07,27,11.20
2011,07,09,07,28,11.30
2011,07,09,07,29,11.40
2011,07,09,07,30,11.40
2011,07,09,07,31,11.50
2011,07,09,07,32,11.60
2011,07,09,07,33,11.60
2011,07,09,07,34,11.70
2011,07,09,07,35,11.70
2011,07,09,07,36,11.80
2011,07,09,07,37,11.80
2011,07,09,07,38,11.80
2011,07,09,07,39,11.90
2011,07,09,07,40,12.00
2011,07,09,07,41,12.10
2011,07,09,07,42,12.10
2011,07,09,07,43,12.10
2011,07,09,07,44,12.20
2011,07,09,07,45,12.20
2011,07,09,07,46,12.30
2011,07,09,07,47,12.30
2011,07,09,07,48,12.40
2011,07,09,07,49,12.50
2011,07,09,07,50,12.70
2011,07,09,07,51,12.80
2011,07,09,07,52,13.00
2011,07,09,07,53,13.10
2011,07,09,07,54,13.20
2011,07,09,07,55,13.20
2011,07,09,07,56,13.10
2011,07,09,07,57,13.10
2011,07,09,07,58,13.00
2011,07,09,07,59,13.00
2011,07,09,08,00,12.90
2011,07,09,08,01,12.90
2011,07,09,08,02,12.80
2011,07,09,08,03,12.80
2011,07,09,08,04,12.90
2011,07,09,08,05,12.80
2011,07,09,08,06,12.80
2011,07,09,08,07,12.80
2011,07,09,08,08,12.80
2011,07,09,08,09,12.70
2011,07,09,08,10,12.70
2011,07,09,08,11,12.60
2011,07,09,08,12,12.40
2011,07,09,08,13,12.30
2011,07,09,08,14,12.20
2011,07,09,08,15,12.10
2011,07,09,08,16,12.10
2011,07,09,08,17,12.00
2011,07,09,08,18,11.90
2011,07,09,08,19,11.90
2011,07,09,08,20,11.90
2011,07,09,08,21,11.80
2011,07,09,08,22,11.90
2011,07,09,08,23,11.90
2011,07,09,08,24,11.90
2011,07,09,08,25,12.00
2011,07,09,08,26,12.00
2011,07,09,08,27,12.10
2011,07,09,08,28,12.10
2011,07,09,08,29,12.10
2011,07,09,08,30,12.10
2011,07,09,08,31,12.10
2011,07,09,08,32,12.10
2011,07,09,08,33,12.10
2011,07,09,08,34,12.20
2011,07,09,08,35,12.20
2011,07,09,08,36,12.30
2011,07,09,08,37,12.30
2011,07,09,08,38,12.30
2011,07,09,08,39,12.30
2011,07,09,08,40,12.30
2011,07,09,08,41,12.30
2011,07,09,08,42,12.20
2011,07,09,08,43,12.20
2011,07,09,08,44,12.20
2011,07,09,08,45,12.30
2011,07,09,08,46,12.30
2011,07,09,08,47,12.40
2011,07,09,08,48,12.40
2011,07,09,08,49,12.50
2011,07,09,08,50,12.60
2011,07,09,08,51,12.60
2011,07,09,08,52,12.60
2011,07,09,08,53,12.60
2011,07,09,08,54,12.70
2011,07,09,08,55,12.70
2011,07,09,08,56,12.70
2011,07,09,08,57,12.70
2011,07,09,08,58,12.80
2011,07,09,08,59,12.80
2011,07,09,09,00,12.80
2011,07,09,09,01,12.80
2011,07,09,09,02,12.80
2011,07,09,09,03,12.70
2011,07,09,09,04,12.70
2011,07,09,09,05,12.70
2011,07,09,09,06,12.80
2011,07,09,09,07,12.90
2011,07,09,09,08,13.00
2011,07,09,09,09,13.00
2011,07,09,09,10,13.00
2011,07,09,09,11,13.10
2011,07,09,09,12,13.10
2011,07,09,09,13,13.10
2011,07,09,09,14,13.20
2011,07,09,09,15,13.20
2011,07,09,09,16,13.10
2011,07,09,09,17,13.00
2011,07,09,09,18,13.00
2011,07,09,09,19,12.90
2011,07,09,09,20,12.80
2011,07,09,09,21,12.60
2011,07,09,09,22,12.50
2011,07,09,09,23,12.50
2011,07,09,09,24,12.40
2011,07,09,09,25,12.40
2011,07,09,09,26,12.40
2011,07,09,09,27,12.40
2011,07,09,09,28,12.30
2011,07,09,09,29,12.30
2011,07,09,09,30,12.30
2011,07,09,09,31,12.30
2011,07,09,09,32,12.40
2011,07,09,09,33,12.50
2011,07,09,09,34,12.60
2011,07,09,09,35,12.70
2011,07,09,09,36,12.70
2011,07,09,09,37,12.80
2011,07,09,09,38,12.80
2011,07,09,09,39,12.90
2011,07,09,09,40,12.90
2011,07,09,09,41,12.90
2011,07,09,09,42,12.90
2011,07,09,09,43,12.90
2011,07,09,09,44,12.90
2011,07,09,09,45,12.90
2011,07,09,09,46,13.00
2011,07,09,09,47,13.10
2011,07,09,09,48,13.20
2011,07,09,09,49,13.20
2011,07,09,09,50,13.30
2011,07,09,09,51,13.30
2011,07,09,09,52,13.50
2011,07,09,09,53,13.50
2011,07,09,09,54,13.60
2011,07,09,09,55,13.70
2011,07,09,09,56,13.70
2011,07,09,09,57,13.70
2011,07,09,09,58,13.80
2011,07,09,09,59,13.70
2011,07,09,10,00,13.70
2011,07,09,10,01,13.60
2011,07,09,10,02,13.50
2011,07,09,10,03,13.40
2011,07,09,10,04,13.40
2011,07,09,10,05,13.40
2011,07,09,10,06,13.40
2011,07,09,10,07,13.30
2011,07,09,10,08,13.30
2011,07,09,10,09,13.30
2011,07,09,10,10,13.40
2011,07,09,10,11,13.50
2011,07,09,10,12,13.60
2011,07,09,10,13,13.70
2011,07,09,10,14,13.90
2011,07,09,10,15,14.10
2011,07,09,10,16,14.20
2011,07,09,10,17,14.30
2011,07,09,10,18,14.30
2011,07,09,10,19,14.30
2011,07,09,10,20,14.30
2011,07,09,10,21,14.20
2011,07,09,10,22,14.10
2011,07,09,10,23,14.10
2011,07,09,10,24,14.10
2011,07,09,10,25,14.10
2011,07,09,10,26,14.10
2011,07,09,10,27,14.20
2011,07,09,10,28,14.30
2011,07,09,10,29,14.30
2011,07,09,10,30,14.30
2011,07,09,10,31,14.40
2011,07,09,10,32,14.30
2011,07,09,10,33,14.40
2011,07,09,10,34,14.50
2011,07,09,10,35,14.60
2011,07,09,10,36,14.60
2011,07,09,10,37,14.70
2011,07,09,10,38,14.60
2011,07,09,10,39,14.40
2011,07,09,10,40,14.40
2011,07,09,10,41,14.30
2011,07,09,10,42,14.30
2011,07,09,10,43,14.30
2011,07,09,10,44,14.20
2011,07,09,10,45,14.10
2011,07,09,10,46,14.20
2011,07,09,10,47,14.20
2011,07,09,10,48,14.10
2011,07,09,10,49,14.10
2011,07,09,10,50,14.20
2011,07,09,10,51,14.30
2011,07,09,10,52,14.30
2011,07,09,10,53,14.20
2011,07,09,10,54,14.20
2011,07,09,10,55,14.20
2011,07,09,10,56,14.30
2011,07,09,10,57,14.30
2011,07,09,10,58,14.20
2011,07,09,10,59,14.20
2011,07,09,11,00,14.20
2011,07,09,11,01,14.20
2011,07,09,11,02,14.30
2011,07,09,11,03,14.40
2011,07,09,11,04,14.50
2011,07,09,11,05,14.60
2011,07,09,11,06,14.50
2011,07,09,11,07,14.50
2011,07,09,11,08,14.60
2011,07,09,11,09,14.50
2011,07,09,11,10,14.50
2011,07,09,11,11,14.50
2011,07,09,11,12,14.40
2011,07,09,11,13,14.50
2011,07,09,11,14,14.60
2011,07,09,11,15,14.60
2011,07,09,11,16,14.50
2011,07,09,11,17,14.60
2011,07,09,11,18,14.70
2011,07,09,11,19,14.70
2011,07,09,11,20,14.80
2011,07,09,11,21,14.80
2011,07,09,11,22,15.00
2011,07,09,11,23,15.00
2011,07,09,11,24,15.00
2011,07,09,11,25,15.00
2011,07,09,11,26,14.90
2011,07,09,11,27,14.80
2011,07,09,11,28,14.70
2011,07,09,11,29,14.70
2011,07,09,11,30,14.70
2011,07,09,11,31,14.70
2011,07,09,11,32,14.80
2011,07,09,11,33,14.80
2011,07,09,11,34,15.00
2011,07,09,11,35,15.00
2011,07,09,11,36,15.00
2011,07,09,11,37,15.00
2011,07,09,11,38,14.80
2011,07,09,11,39,14.70
2011,07,09,11,40,14.70
2011,07,09,11,41,14.70
2011,07,09,11,42,14.80
2011,07,09,11,43,14.80
2011,07,09,11,44,14.80
2011,07,09,11,45,14.80
2011,07,09,11,46,14.70
2011,07,09,11,47,14.70
2011,07,09,11,48,14.70
2011,07,09,11,49,14.70
2011,07,09,11,50,14.70
2011,07,09,11,51,14.60
2011,07,09,11,52,14.50
2011,07,09,11,53,14.60
2011,07,09,11,54,14.70
2011,07,09,11,55,14.90
2011,07,09,11,56,15.00
2011,07,09,11,57,15.00
2011,07,09,11,58,15.00
2011,07,09,11,59,15.00
2011,07,09,12,00,15.00
2011,07,09,12,01,15.00
2011,07,09,12,02,15.00
2011,07,09,12,03,15.00
2011,07,09,12,04,15.00
2011,07,09,12,05,15.00
2011,07,09,12,06,15.00
2011,07,09,12,07,15.00
2011,07,09,12,08,15.00
2011,07,09,12,09,15.00
2011,07,09,12,10,15.00
2011,07,09,12,11,15.00
2011,07,09,12,12,15.10
2011,07,09,12,13,15.20
2011,07,09,12,14,15.20
2011,07,09,12,15,15.30
2011,07,09,12,16,15.30
2011,07,09,12,17,15.20
2011,07,09,12,18,15.00
2011,07,09,12,19,15.00
2011,07,09,12,20,15.00
2011,07,09,12,21,14.80
2011,07,09,12,22,14.80
2011,07,09,12,23,14.70
2011,07,09,12,24,14.80
2011,07,09,12,25,14.80
2011,07,09,12,26,15.00
2011,07,09,12,27,15.00
2011,07,09,12,28,15.00
2011,07,09,12,29,15.00
2011,07,09,12,30,15.00
2011,07,09,12,31,15.00
2011,07,09,12,32,15.00
2011,07,09,12,33,15.00
2011,07,09,12,34,15.10
2011,07,09,12,35,15.30
2011,07,09,12,36,15.30
2011,07,09,12,37,15.40
2011,07,09,12,38,15.40
2011,07,09,12,39,15.30
2011,07,09,12,40,15.20
2011,07,09,12,41,15.00
2011,07,09,12,42,15.00
2011,07,09,12,43,15.20
2011,07,09,12,44,15.30
2011,07,09,12,45,15.30
2011,07,09,12,46,15.20
2011,07,09,12,47,15.10
2011,07,09,12,48,15.00
2011,07,09,12,49,15.00
2011,07,09,12,50,15.00
2011,07,09,12,51,15.10
2011,07,09,12,52,15.20
2011,07,09,12,53,15.20
2011,07,09,12,54,15.10
2011,07,09,12,55,15.00
2011,07,09,12,56,15.10
2011,07,09,12,57,15.10
2011,07,09,12,58,15.10
2011,07,09,12,59,15.30
2011,07,09,13,00,15.50
2011,07,09,13,01,15.60
2011,07,09,13,02,15.70
2011,07,09,13,03,15.70
2011,07,09,13,04,15.80
2011,07,09,13,05,15.70
2011,07,09,13,06,15.70
2011,07,09,13,07,15.60
2011,07,09,13,08,15.70
2011,07,09,13,09,15.60
2011,07,09,13,10,15.70
2011,07,09,13,11,15.70
2011,07,09,13,12,15.60
2011,07,09,13,13,15.70
2011,07,09,13,14,15.60
2011,07,09,13,15,15.60
2011,07,09,13,16,15.50
2011,07,09,13,17,15.40
2011,07,09,13,18,15.40
2011,07,09,13,19,15.50
2011,07,09,13,20,15.70
2011,07,09,13,21,15.80
2011,07,09,13,22,16.00
2011,07,09,13,23,16.10
2011,07,09,13,24,16.10
2011,07,09,13,25,16.10
2011,07,09,13,26,16.20
2011,07,09,13,27,16.20
2011,07,09,13,28,16.20
2011,07,09,13,29,16.30
2011,07,09,13,30,16.30
2011,07,09,13,31,16.30
2011,07,09,13,32,16.20
2011,07,09,13,33,16.20
2011,07,09,13,34,16.30
2011,07,09,13,35,16.30
2011,07,09,13,36,16.30
2011,07,09,13,37,16.20
2011,07,09,13,38,16.10
2011,07,09,13,39,16.10
2011,07,09,13,40,16.20
2011,07,09,13,41,16.20
2011,07,09,13,42,16.10
2011,07,09,13,43,15.80
2011,07,09,13,44,15.70
2011,07,09,13,45,15.80
2011,07,09,13,46,15.80
2011,07,09,13,47,15.80
2011,07,09,13,48,15.90
2011,07,09,13,49,15.90
2011,07,09,13,50,16.00
2011,07,09,13,51,16.10
2011,07,09,13,52,16.20
2011,07,09,13,53,16.30
2011,07,09,13,54,16.30
2011,07,09,13,55,16.30
2011,07,09,13,56,16.30
2011,07,09,13,57,16.20
2011,07,09,13,58,16.10
2011,07,09,13,59,16.10
2011,07,09,14,00,16.00
2011,07,09,14,01,15.90
2011,07,09,14,02,15.90
2011,07,09,14,03,15.90
2011,07,09,14,04,15.90
2011,07,09,14,05,16.00
2011,07,09,14,06,16.10
2011,07,09,14,07,16.20
2011,07,09,14,08,16.30
2011,07,09,14,09,16.30
2011,07,09,14,10,16.30
2011,07,09,14,11,16.20
2011,07,09,14,12,16.00
2011,07,09,14,13,16.00
2011,07,09,14,14,15.90
2011,07,09,14,15,15.90
2011,07,09,14,16,15.90
2011,07,09,14,17,15.90
2011,07,09,14,18,16.00
2011,07,09,14,19,16.10
2011,07,09,14,20,16.10
2011,07,09,14,21,16.20
2011,07,09,14,22,16.30
2011,07,09,14,23,16.30
2011,07,09,14,24,16.10
2011,07,09,14,25,16.10
2011,07,09,14,26,16.10
2011,07,09,14,27,16.10
2011,07,09,14,28,16.00
2011,07,09,14,29,15.90
2011,07,09,14,30,15.80
2011,07,09,14,31,15.70
2011,07,09,14,32,15.70
2011,07,09,14,33,15.70
2011,07,09,14,34,15.80
2011,07,09,14,35,15.70
2011,07,09,14,36,15.70
2011,07,09,14,37,15.80
2011,07,09,14,38,16.00
2011,07,09,14,39,16.10
2011,07,09,14,40,16.20
2011,07,09,14,41,16.20
2011,07,09,14,42,16.20
2011,07,09,14,43,16.10
2011,07,09,14,44,16.10
2011,07,09,14,45,16.00
2011,07,09,14,46,16.00
2011,07,09,14,47,16.10
2011,07,09,14,48,16.10
2011,07,09,14,49,16.10
2011,07,09,14,50,16.10
2011,07,09,14,51,16.10
2011,07,09,14,52,16.10
2011,07,09,14,53,16.10
2011,07,09,14,54,16.20
2011,07,09,14,55,16.10
2011,07,09,14,56,16.10
2011,07,09,14,57,16.20
2011,07,09,14,58,16.20
2011,07,09,14,59,16.30
2011,07,09,15,00,16.30
2011,07,09,15,01,16.30
2011,07,09,15,02,16.30
2011,07,09,15,03,16.40
2011,07,09,15,04,16.40
2011,07,09,15,05,16.40
2011,07,09,15,06,16.40
2011,07,09,15,07,16.50
2011,07,09,15,08,16.50
2011,07,09,15,09,16.50
2011,07,09,15,10,16.50
2011,07,09,15,11,16.50
2011,07,09,15,12,16.50
2011,07,09,15,13,16.60
2011,07,09,15,14,16.60
2011,07,09,15,15,16.70
2011,07,09,15,16,16.80
2011,07,09,15,17,16.80
2011,07,09,15,18,16.80
2011,07,09,15,19,16.70
2011,07,09,15,20,16.70
2011,07,09,15,21,16.70
2011,07,09,15,22,16.60
2011,07,09,15,23,16.50
2011,07,09,15,24,16.50
2011,07,09,15,25,16.40
2011,07,09,15,26,16.40
2011,07,09,15,27,16.50
2011,07,09,15,28,16.60
2011,07,09,15,29,16.60
2011,07,09,15,30,16.60
2011,07,09,15,31,16.60
2011,07,09,15,32,16.60
2011,07,09,15,33,16.60
2011,07,09,15,34,16.60
2011,07,09,15,35,16.70
2011,07,09,15,36,16.70
2011,07,09,15,37,16.70
2011,07,09,15,38,16.70
2011,07,09,15,39,16.70
2011,07,09,15,40,16.70
2011,07,09,15,41,16.70
2011,07,09,15,42,16.70
2011,07,09,15,43,16.80
2011,07,09,15,44,16.80
2011,07,09,15,45,16.90
2011,07,09,15,46,16.90
2011,07,09,15,47,16.90
2011,07,09,15,48,17.00
2011,07,09,15,49,17.00
2011,07,09,15,50,17.00
2011,07,09,15,51,17.10
2011,07,09,15,52,17.20
2011,07,09,15,53,17.20
2011,07,09,15,54,17.10
2011,07,09,15,55,16.90
2011,07,09,15,56,16.80
2011,07,09,15,57,16.80
2011,07,09,15,58,16.90
2011,07,09,15,59,16.90
2011,07,09,16,00,16.90
2011,07,09,16,01,16.90
2011,07,09,16,02,17.00
2011,07,09,16,03,17.10
2011,07,09,16,04,17.20
2011,07,09,16,05,17.30
2011,07,09,16,06,17.30
2011,07,09,16,07,17.40
2011,07,09,16,08,17.30
2011,07,09,16,09,17.30
2011,07,09,16,10,17.30
2011,07,09,16,11,17.20
2011,07,09,16,12,17.10
2011,07,09,16,13,17.00
2011,07,09,16,14,16.90
2011,07,09,16,15,16.80
2011,07,09,16,16,16.80
2011,07,09,16,17,16.80
2011,07,09,16,18,16.80
2011,07,09,16,19,16.80
2011,07,09,16,20,16.80
2011,07,09,16,21,16.90
2011,07,09,16,22,16.90
2011,07,09,16,23,17.00
2011,07,09,16,24,17.10
2011,07,09,16,25,17.10
2011,07,09,16,26,17.20
2011,07,09,16,27,17.20
2011,07,09,16,28,17.30
2011,07,09,16,29,17.20
2011,07,09,16,30,17.20
2011,07,09,16,31,17.10
2011,07,09,16,32,17.00
2011,07,09,16,33,17.00
2011,07,09,16,34,16.90
2011,07,09,16,35,16.90
2011,07,09,16,36,16.90
2011,07,09,16,37,16.90
2011,07,09,16,38,16.90
2011,07,09,16,39,17.00
2011,07,09,16,40,17.00
2011,07,09,16,41,17.00
2011,07,09,16,42,17.10
2011,07,09,16,43,17.10
2011,07,09,16,44,17.20
2011,07,09,16,45,17.20
2011,07,09,16,46,17.20
2011,07,09,16,47,17.30
2011,07,09,16,48,17.30
2011,07,09,16,49,17.40
2011,07,09,16,50,17.40
2011,07,09,16,51,17.50
2011,07,09,16,52,17.60
2011,07,09,16,53,17.70
2011,07,09,16,54,17.80
2011,07,09,16,55,17.80
2011,07,09,16,56,17.80
2011,07,09,16,57,17.70
2011,07,09,16,58,17.60
2011,07,09,16,59,17.50
2011,07,09,17,00,17.40
2011,07,09,17,01,17.30
2011,07,09,17,02,17.20
2011,07,09,17,03,17.00
2011,07,09,17,04,16.90
2011,07,09,17,05,16.90
2011,07,09,17,06,16.80
2011,07,09,17,07,16.80
2011,07,09,17,08,16.80
2011,07,09,17,09,16.80
2011,07,09,17,10,16.70
2011,07,09,17,11,16.70
2011,07,09,17,12,16.70
2011,07,09,17,13,16.70
2011,07,09,17,14,16.70
2011,07,09,17,15,16.70
2011,07,09,17,16,16.70
2011,07,09,17,17,16.70
2011,07,09,17,18,16.80
2011,07,09,17,19,16.80
2011,07,09,17,20,16.90
2011,07,09,17,21,16.90
2011,07,09,17,22,17.00
2011,07,09,17,23,17.10
2011,07,09,17,24,17.20
2011,07,09,17,25,17.20
2011,07,09,17,26,17.30
2011,07,09,17,27,17.30
2011,07,09,17,28,17.30
2011,07,09,17,29,17.30